Date String (YYYY-MM-DD hh:mm:ss) UTC,Instrument flags,Ambient pressure (hPa),Sample flow (lpm),Bypass flow (lpm),Sample temperature (°C),Ambient temperature (°C),ASC tube jacket temperature (°C),LED temperature (°C),Box temperature (°C),Sample RH (%),Span deviation,Mass concentration (μg/m³),Mass concentration (μg/m³),Mass concentration (μg/m³)
DateTimeUTC,F1_M11,P_M11,Q1_M11,Q2_M11,T1_M11,T2_M11,T3_M11,T4_M11,T5_M11,U1_M11,ZSPAN_M11,X0_M11,X2_M11,X1_M11
2022-05-30 05:00:00,,0813.3,4.99,0.00,29.4,28.2,00.0,38.4,31.1,23.7,0000.0,0005.86,0001.86,0001.06
2022-05-30 05:01:00,,0813.3,5.01,0.00,29.3,28.2,00.0,38.4,31.1,23.6,0000.0,0005.58,0001.87,0001.07
2022-05-30 05:02:00,,0813.3,5.00,0.00,29.3,28.2,00.0,38.4,31.1,23.5,0000.0,0004.71,0001.91,0001.09
2022-05-30 05:03:00,,0813.2,4.99,0.00,29.3,28.2,00.0,38.4,31.1,23.3,0000.0,0004.47,0001.86,0001.09
2022-05-30 05:04:00,,0813.3,5.01,0.00,29.3,28.1,00.0,38.4,31.1,23.2,0000.0,0004.42,0001.89,0001.12
2022-05-30 05:05:00,,0813.3,5.01,0.00,29.3,28.1,00.0,38.3,31.1,23.1,0000.0,0004.55,0001.95,0001.14
2022-05-30 05:06:00,,0813.3,4.99,0.00,29.3,28.1,00.0,38.3,31.1,23.0,0000.0,0004.47,0001.95,0001.16
2022-05-30 05:07:00,,0813.3,4.99,0.00,29.3,28.1,00.0,38.3,31.0,22.9,0000.0,0004.29,0001.91,0001.17
2022-05-30 05:08:00,,0813.4,5.01,0.00,29.2,28.1,00.0,38.3,31.0,22.8,0000.0,0004.35,0001.96,0001.18
2022-05-30 05:09:00,,0813.4,5.00,0.00,29.2,28.0,00.0,38.3,31.0,23.1,0000.0,0004.15,0001.95,0001.19
2022-05-30 05:10:00,,0813.5,5.00,0.00,29.2,28.0,00.0,38.3,31.0,23.1,0000.0,0003.48,0001.97,0001.20
2022-05-30 05:11:00,,0813.4,4.99,0.00,29.2,28.0,00.0,38.3,31.0,23.0,0000.0,0003.65,0002.03,0001.22
2022-05-30 05:12:00,,0813.4,5.00,0.00,29.2,28.0,00.0,38.3,31.0,22.7,0000.0,0003.95,0002.12,0001.23
2022-05-30 05:13:00,,0813.4,5.00,0.00,29.2,28.0,00.0,38.3,31.0,22.6,0000.0,0004.28,0002.23,0001.25
2022-05-30 05:14:00,,0813.4,5.00,0.00,29.2,28.0,00.0,38.2,31.0,22.3,0000.0,0004.73,0002.33,0001.26
2022-05-30 05:15:00,,0813.5,4.99,0.00,29.2,28.0,00.0,38.2,31.0,22.1,0000.0,0005.17,0002.37,0001.25
2022-05-30 05:16:00,,0813.4,5.00,0.00,29.2,28.0,00.0,38.2,31.0,22.0,0000.0,0005.16,0002.37,0001.25
2022-05-30 05:17:00,,0813.5,4.99,0.00,29.2,28.0,00.0,38.2,31.0,22.2,0000.0,0005.18,0002.39,0001.25
2022-05-30 05:18:00,,0813.4,4.99,0.00,29.2,28.0,00.0,38.2,30.9,22.2,0000.0,0005.12,0002.40,0001.26
2022-05-30 05:19:00,,0813.6,4.99,0.00,29.2,27.9,00.0,38.2,30.9,22.2,0000.0,0005.33,0002.48,0001.28
2022-05-30 05:20:00,,0813.6,5.00,0.00,29.1,27.9,00.0,38.2,30.9,22.3,0000.0,0005.49,0002.47,0001.26
2022-05-30 05:21:00,,0813.7,5.01,0.00,29.1,27.9,00.0,38.2,30.8,22.4,0000.0,0005.51,0002.45,0001.25
2022-05-30 05:22:00,,0814.1,5.01,0.00,29.1,27.8,00.0,38.2,30.8,22.6,0000.0,0005.69,0002.42,0001.25
2022-05-30 05:23:00,,0813.7,5.00,0.00,29.0,27.8,00.0,38.2,30.8,22.8,0000.0,0005.62,0002.39,0001.26
2022-05-30 05:24:00,,0813.8,5.00,0.00,29.0,27.8,00.0,38.1,30.8,23.0,0000.0,0005.57,0002.33,0001.24
2022-05-30 05:25:00,,0813.7,5.01,0.00,29.0,27.8,00.0,38.1,30.8,23.1,0000.0,0005.31,0002.27,0001.24
2022-05-30 05:26:00,,0813.7,5.00,0.00,29.0,27.7,00.0,38.1,30.8,23.2,0000.0,0004.91,0002.23,0001.25
2022-05-30 05:27:00,,0813.9,5.01,0.00,29.0,27.7,00.0,38.1,30.8,23.4,0000.0,0005.10,0002.23,0001.25
2022-05-30 05:28:00,,0813.8,5.00,0.00,29.0,27.8,00.0,38.1,30.7,23.2,0000.0,0005.14,0002.24,0001.26
2022-05-30 05:29:00,,0814.2,5.00,0.00,29.0,27.7,00.0,38.1,30.7,23.2,0000.0,0005.24,0002.27,0001.26
2022-05-30 05:30:00,,0814.2,4.99,0.00,29.0,27.7,00.0,38.1,30.7,23.3,0000.0,0005.24,0002.25,0001.25
2022-05-30 05:31:00,,0814.1,5.01,0.00,28.9,27.7,00.0,38.0,30.7,23.5,0000.0,0006.34,0002.24,0001.26
2022-05-30 05:32:00,,0814.2,5.00,0.00,28.9,27.7,00.0,38.0,30.7,23.3,0000.0,0006.54,0002.32,0001.27
2022-05-30 05:33:00,,0814.3,4.99,0.00,28.9,27.7,00.0,38.0,30.7,23.2,0000.0,0006.38,0002.38,0001.27
2022-05-30 05:34:00,,0814.1,4.99,0.00,28.9,27.7,00.0,38.0,30.7,23.2,0000.0,0006.51,0002.47,0001.27
2022-05-30 05:35:00,,0814.1,4.99,0.00,28.9,27.7,00.0,38.0,30.7,23.1,0000.0,0006.43,0002.46,0001.27
2022-05-30 05:36:00,,0814.1,5.00,0.00,28.9,27.7,00.0,38.0,30.7,23.1,0000.0,0006.62,0002.53,0001.27
2022-05-30 05:37:00,,0813.6,5.00,0.00,28.9,27.7,00.0,38.0,30.7,22.1,0000.0,0006.57,0002.55,0001.25
2022-05-30 05:38:00,,0813.9,5.00,0.00,29.0,27.7,00.0,38.0,30.8,20.2,0000.0,0006.21,0002.47,0001.22
2022-05-30 05:39:00,,0814.1,5.00,0.00,29.0,27.7,00.0,37.9,30.8,20.4,0000.0,0006.21,0002.44,0001.17
2022-05-30 05:40:00,,0814.2,4.99,0.00,28.9,27.7,00.0,37.9,30.8,21.1,0000.0,0006.36,0002.51,0001.16
2022-05-30 05:41:00,,0814.2,5.00,0.00,29.0,27.7,00.0,37.9,30.7,20.9,0000.0,0006.22,0002.47,0001.13
2022-05-30 05:42:00,,0814.1,5.00,0.00,28.9,27.7,00.0,37.9,30.8,20.3,0000.0,0005.15,0002.45,0001.10
2022-05-30 05:43:00,,0814.1,5.01,0.00,28.9,27.7,00.0,37.9,30.7,20.4,0000.0,0004.79,0002.39,0001.08
2022-05-30 05:44:00,,0813.9,5.00,0.00,28.9,27.7,00.0,37.9,30.8,20.4,0000.0,0004.70,0002.33,0001.04
2022-05-30 05:45:00,,0813.7,4.99,0.00,29.0,27.7,00.0,37.9,30.8,20.2,0000.0,0004.44,0002.19,0000.99
2022-05-30 05:46:00,,0813.7,5.01,0.00,29.0,27.7,00.0,37.9,30.8,19.8,0000.0,0004.34,0002.15,0000.94
2022-05-30 05:47:00,,0813.7,5.00,0.00,29.0,27.7,00.0,37.9,30.8,20.9,0000.0,0004.19,0002.09,0000.91
2022-05-30 05:48:00,,0813.7,5.00,0.00,29.0,27.7,00.0,37.9,30.8,21.1,0000.0,0004.05,0002.03,0000.89
2022-05-30 05:49:00,,0813.7,4.99,0.00,29.0,27.7,00.0,37.9,30.8,21.6,0000.0,0004.33,0002.12,0000.91
2022-05-30 05:50:00,,0813.8,5.00,0.00,28.9,27.7,00.0,37.9,30.8,21.9,0000.0,0004.65,0002.21,0000.93
2022-05-30 05:51:00,,0813.7,5.02,0.00,28.9,27.7,00.0,37.9,30.8,21.6,0000.0,0004.51,0002.15,0000.93
2022-05-30 05:52:00,,0813.8,4.99,0.00,28.9,27.7,00.0,37.9,30.8,21.2,0000.0,0004.96,0002.17,0000.93
2022-05-30 05:53:00,,0813.8,5.00,0.00,28.9,27.7,00.0,37.9,30.8,21.0,0000.0,0005.51,0002.14,0000.92
2022-05-30 05:54:00,,0813.8,5.00,0.00,28.9,27.7,00.0,37.9,30.8,20.8,0000.0,0005.58,0002.14,0000.91
2022-05-30 05:55:00,,0813.8,5.01,0.00,28.9,27.7,00.0,37.9,30.8,20.6,0000.0,0005.82,0002.18,0000.92
2022-05-30 05:56:00,,0813.8,5.00,0.00,28.9,27.7,00.0,37.9,30.7,20.6,0000.0,0005.85,0002.21,0000.92
2022-05-30 05:57:00,,0813.7,4.99,0.00,28.9,27.7,00.0,37.9,30.7,20.5,0000.0,0005.72,0002.16,0000.93
2022-05-30 05:58:00,,0813.8,5.00,0.00,28.9,27.7,00.0,37.9,30.7,20.5,0000.0,0005.62,0002.12,0000.93
2022-05-30 05:59:00,,0813.8,5.00,0.00,28.9,27.7,00.0,37.9,30.7,20.5,0000.0,0005.63,0002.13,0000.92
